Location: Arroyo de San Miguel
(40.9167°N, 4.6667°W)
Time: 02:18:27
(UTC+00:00)

Cosmos 1125 Rocket - Pass Details

Date: 19 May 2025
Orbit: 753 x 776 km, 74.0° (Epoch: 24 June)

Event Time Altitude Azimuth Distance (km) Brightness Sun altitude
Rises 21:03:54 0° 346° (NNW) 3,264 7.8 -14.7°
Reaches altitude 10° 21:06:24 10° 353° (N) 2,333 6.8 -15.0°
Maximum altitude 21:11:29 45° 66° (ENE) 1,048 4.0 -15.7°
Enters shadow 21:14:07 25° 124° (SE) 1,508 4.4 -16.0°
